TimeCST,TemperatureF,Dew PointF,Humidity,Sea Level PressureIn,VisibilityMPH,Wind Direction,Wind SpeedMPH,Gust SpeedMPH,PrecipitationIn,Events,Conditions,WindDirDegrees,DateUTC
12:07 AM,10.0,5.0,80,30.31,1.8,Calm,Calm,-,0.00,Snow,Light Snow,0,2014-03-04 06:07:00
12:18 AM,10.0,5.0,80,30.31,2.5,South,3.5,-,0.00,Snow,Light Snow,190,2014-03-04 06:18:00
12:33 AM,10.0,3.9,76,30.30,1.8,South,4.6,-,0.01,Snow,Light Snow,170,2014-03-04 06:33:00
12:56 AM,10.0,6.1,84,30.33,1.2,SE,3.5,-,0.01,Snow,Light Snow,140,2014-03-04 06:56:00
1:50 AM,10.4,6.8,85,30.29,0.8,Calm,Calm,-,0.03,Snow,Light Snow,0,2014-03-04 07:50:00
1:56 AM,10.0,6.1,84,30.32,0.8,Calm,Calm,-,0.04,Snow,Light Snow,0,2014-03-04 07:56:00
2:15 AM,10.0,6.1,84,30.28,0.5,ESE,3.5,-,0.02,Fog-Snow,Snow,120,2014-03-04 08:15:00
2:24 AM,10.0,7.0,87,30.28,1.0,ESE,3.5,-,0.02,Snow,Light Snow,110,2014-03-04 08:24:00
2:39 AM,10.0,6.1,84,30.27,1.5,ESE,3.5,-,0.03,Snow,Light Snow,120,2014-03-04 08:39:00
2:49 AM,10.0,7.0,87,30.26,3.0,Calm,Calm,-,0.03,Snow,Light Snow,0,2014-03-04 08:49:00
2:56 AM,10.0,7.0,87,30.29,6.0,ESE,3.5,-,0.03,,Overcast,120,2014-03-04 08:56:00
3:09 AM,10.0,6.1,84,30.25,10.0,ESE,4.6,-,N/A,,Overcast,120,2014-03-04 09:09:00
3:26 AM,10.0,7.0,87,30.25,10.0,SE,3.5,-,N/A,,Overcast,140,2014-03-04 09:26:00
3:56 AM,10.9,5.0,77,30.28,10.0,South,3.5,-,N/A,,Overcast,170,2014-03-04 09:56:00
4:56 AM,10.9,5.0,77,30.27,10.0,South,3.5,-,N/A,,Overcast,180,2014-03-04 10:56:00
5:56 AM,12.0,6.1,77,30.27,10.0,SSW,3.5,-,N/A,,Overcast,200,2014-03-04 11:56:00
6:56 AM,12.0,6.1,77,30.26,10.0,South,4.6,-,N/A,,Overcast,170,2014-03-04 12:56:00
7:56 AM,12.0,6.1,77,30.26,10.0,South,4.6,-,N/A,,Overcast,180,2014-03-04 13:56:00
8:56 AM,14.0,7.0,74,30.25,10.0,Calm,Calm,-,N/A,,Overcast,0,2014-03-04 14:56:00
9:56 AM,16.0,7.0,68,30.24,10.0,Calm,Calm,-,N/A,,Overcast,0,2014-03-04 15:56:00
10:56 AM,18.0,7.0,62,30.24,10.0,Calm,Calm,-,N/A,,Overcast,0,2014-03-04 16:56:00
11:56 AM,19.0,5.0,54,30.22,10.0,Calm,Calm,-,N/A,,Overcast,0,2014-03-04 17:56:00
12:56 PM,19.9,6.1,55,30.22,10.0,WNW,4.6,-,N/A,,Overcast,300,2014-03-04 18:56:00
1:56 PM,21.0,6.1,53,30.20,10.0,Calm,Calm,-,N/A,,Overcast,0,2014-03-04 19:56:00
2:56 PM,23.0,7.0,50,30.20,10.0,Calm,Calm,-,N/A,,Overcast,0,2014-03-04 20:56:00
3:56 PM,21.9,8.1,55,30.19,10.0,Calm,Calm,-,N/A,,Overcast,0,2014-03-04 21:56:00
4:56 PM,21.9,7.0,53,30.19,10.0,Calm,Calm,-,N/A,,Overcast,0,2014-03-04 22:56:00
5:56 PM,21.0,10.0,63,30.22,10.0,ENE,4.6,-,N/A,,Overcast,70,2014-03-04 23:56:00
6:56 PM,19.9,8.1,60,30.23,10.0,ENE,5.8,-,N/A,,Overcast,60,2014-03-05 00:56:00
7:56 PM,21.0,8.1,57,30.24,10.0,NE,3.5,-,N/A,,Overcast,50,2014-03-05 01:56:00
8:47 PM,19.9,10.0,65,30.24,2.5,East,4.6,-,0.00,Snow,Light Snow,100,2014-03-05 02:47:00
8:56 PM,19.0,12.0,74,30.26,1.8,East,5.8,-,0.00,Snow,Light Snow,90,2014-03-05 02:56:00
9:15 PM,18.0,14.0,84,30.25,0.8,East,6.9,-,0.00,Snow,Light Snow,100,2014-03-05 03:15:00
9:34 PM,18.0,15.1,88,30.26,1.0,East,4.6,-,0.02,Snow,Light Snow,90,2014-03-05 03:34:00
9:56 PM,18.0,15.1,88,30.28,1.2,ENE,5.8,-,0.02,Snow,Light Snow,70,2014-03-05 03:56:00
10:56 PM,18.0,14.0,84,30.27,1.5,East,10.4,-,0.01,Snow,Light Snow,90,2014-03-05 04:56:00
11:31 PM,18.0,14.0,84,30.24,1.0,ENE,11.5,-,0.01,Snow,Light Snow,70,2014-03-05 05:31:00
11:41 PM,18.0,12.9,81,30.25,1.2,East,9.2,-,0.01,Snow,Light Snow,80,2014-03-05 05:41:00
11:56 PM,18.0,12.9,81,30.29,2.0,East,5.8,-,0.01,Snow,Light Snow,80,2014-03-05 05:56:00